TimeCST,TemperatureF,Dew PointF,Humidity,Sea Level PressureIn,VisibilityMPH,Wind Direction,Wind SpeedMPH,Gust SpeedMPH,PrecipitationIn,Events,Conditions,WindDirDegrees,DateUTC
12:16 AM,19.4,14.0,80,30.38,10.0,Calm,Calm,-,N/A,,Clear,0,2013-03-08 06:16:00
12:36 AM,19.4,12.2,74,30.38,10.0,Calm,Calm,-,N/A,,Clear,0,2013-03-08 06:36:00
12:56 AM,19.4,14.0,80,30.38,10.0,SSE,3.5,-,N/A,,Clear,150,2013-03-08 06:56:00
1:16 AM,19.4,14.0,80,30.39,10.0,Calm,Calm,-,N/A,,Clear,0,2013-03-08 07:16:00
1:36 AM,15.8,12.2,86,30.39,10.0,SE,3.5,-,N/A,,Clear,130,2013-03-08 07:36:00
1:56 AM,19.4,14.0,80,30.39,10.0,South,3.5,-,N/A,,Clear,190,2013-03-08 07:56:00
2:16 AM,17.6,12.2,79,30.39,10.0,Calm,Calm,-,N/A,,Clear,0,2013-03-08 08:16:00
2:36 AM,19.4,15.8,86,30.38,10.0,SSE,5.8,-,N/A,,Clear,150,2013-03-08 08:36:00
2:56 AM,19.4,15.8,86,30.37,10.0,SSE,5.8,-,N/A,,Clear,150,2013-03-08 08:56:00
3:16 AM,19.4,15.8,86,30.36,10.0,South,3.5,-,N/A,,Clear,170,2013-03-08 09:16:00
3:36 AM,19.4,14.0,80,30.35,10.0,SSE,4.6,-,N/A,,Clear,150,2013-03-08 09:36:00
3:56 AM,19.4,14.0,80,30.36,10.0,Calm,Calm,-,N/A,,Clear,0,2013-03-08 09:56:00
4:16 AM,19.4,14.0,80,30.37,10.0,SSW,3.5,-,N/A,,Clear,200,2013-03-08 10:16:00
4:36 AM,19.4,14.0,80,30.37,10.0,SSE,3.5,-,N/A,,Clear,160,2013-03-08 10:36:00
4:56 AM,19.4,15.8,86,30.37,10.0,Calm,Calm,-,N/A,,Clear,0,2013-03-08 10:56:00
5:16 AM,19.4,15.8,86,30.37,10.0,SSW,3.5,-,N/A,,Clear,200,2013-03-08 11:16:00
5:36 AM,19.4,15.8,86,30.38,10.0,Calm,Calm,-,N/A,,Clear,0,2013-03-08 11:36:00
5:56 AM,19.4,15.8,86,30.38,10.0,Calm,Calm,-,N/A,,Clear,0,2013-03-08 11:56:00
6:16 AM,19.4,15.8,86,30.38,10.0,Calm,Calm,-,N/A,,Clear,0,2013-03-08 12:16:00
6:36 AM,19.4,15.8,86,30.38,7.0,Calm,Calm,-,N/A,,Clear,0,2013-03-08 12:36:00
6:56 AM,19.4,15.8,86,30.37,7.0,SSE,4.6,-,N/A,,Clear,160,2013-03-08 12:56:00
7:16 AM,19.4,15.8,86,30.37,7.0,South,3.5,-,N/A,,Clear,170,2013-03-08 13:16:00
7:36 AM,19.4,17.6,93,30.37,7.0,SSE,5.8,-,N/A,,Clear,160,2013-03-08 13:36:00
7:56 AM,21.2,17.6,86,30.37,10.0,SSE,3.5,-,N/A,,Clear,160,2013-03-08 13:56:00
8:16 AM,23.0,19.4,86,30.37,10.0,South,3.5,-,N/A,,Clear,170,2013-03-08 14:16:00
8:36 AM,26.6,19.4,74,30.36,10.0,SE,4.6,-,N/A,,Clear,140,2013-03-08 14:36:00
8:56 AM,28.4,21.2,74,30.36,10.0,SSE,8.1,-,N/A,,Clear,150,2013-03-08 14:56:00
9:16 AM,28.4,21.2,74,30.35,10.0,SE,9.2,-,N/A,,Clear,130,2013-03-08 15:16:00
9:36 AM,28.4,21.2,74,30.35,10.0,SE,6.9,-,N/A,,Clear,130,2013-03-08 15:36:00
9:55 AM,30.2,21.2,69,30.35,10.0,SE,5.8,-,N/A,,Clear,130,2013-03-08 15:55:00
10:16 AM,32.0,23.0,69,30.35,10.0,SE,6.9,-,N/A,,Clear,140,2013-03-08 16:16:00
10:36 AM,32.0,23.0,69,30.34,10.0,SE,8.1,-,N/A,,Clear,140,2013-03-08 16:36:00
10:55 AM,33.8,23.0,65,30.35,10.0,SE,5.8,-,N/A,,Clear,130,2013-03-08 16:55:00
11:16 AM,37.4,24.8,60,30.34,10.0,SSE,9.2,-,N/A,,Clear,150,2013-03-08 17:16:00
11:36 AM,37.4,24.8,60,30.35,10.0,South,6.9,-,N/A,,Clear,170,2013-03-08 17:36:00
11:55 AM,37.4,23.0,56,30.34,10.0,South,5.8,-,N/A,,Clear,190,2013-03-08 17:55:00
12:16 PM,37.4,23.0,56,30.34,10.0,South,5.8,-,N/A,,Clear,170,2013-03-08 18:16:00
12:36 PM,37.4,24.8,60,30.32,10.0,SSE,5.8,-,N/A,,Clear,150,2013-03-08 18:36:00
12:55 PM,37.4,24.8,60,30.31,10.0,SSE,11.5,-,N/A,,Clear,150,2013-03-08 18:55:00
1:16 PM,39.2,24.8,56,30.30,10.0,SSE,6.9,-,N/A,,Clear,160,2013-03-08 19:16:00
1:36 PM,39.2,24.8,56,30.29,10.0,SE,10.4,-,N/A,,Clear,140,2013-03-08 19:36:00
1:55 PM,39.2,24.8,56,30.29,10.0,SSW,5.8,-,N/A,,Clear,200,2013-03-08 19:55:00
2:16 PM,39.2,24.8,56,30.28,10.0,SE,9.2,-,N/A,,Clear,140,2013-03-08 20:16:00
2:36 PM,41.0,26.6,57,30.27,10.0,South,8.1,-,N/A,,Clear,170,2013-03-08 20:36:00
2:55 PM,41.0,26.6,57,30.27,10.0,SSE,11.5,-,N/A,,Clear,150,2013-03-08 20:55:00
3:16 PM,41.0,26.6,57,30.27,10.0,SE,8.1,-,N/A,,Clear,140,2013-03-08 21:16:00
3:36 PM,41.0,26.6,57,30.26,10.0,South,6.9,-,N/A,,Clear,170,2013-03-08 21:36:00
3:56 PM,41.0,26.6,57,30.26,10.0,SSE,6.9,-,N/A,,Clear,160,2013-03-08 21:56:00
4:16 PM,41.0,26.6,57,30.27,10.0,South,3.5,-,N/A,,Clear,180,2013-03-08 22:16:00
4:36 PM,39.2,26.6,61,30.26,10.0,SE,6.9,-,N/A,,Clear,140,2013-03-08 22:36:00
4:56 PM,39.2,26.6,61,30.26,10.0,SE,9.2,-,N/A,,Clear,140,2013-03-08 22:56:00
5:16 PM,37.4,26.6,65,30.26,10.0,SSE,11.5,-,N/A,,Clear,150,2013-03-08 23:16:00
5:36 PM,37.4,26.6,65,30.25,10.0,SSE,5.8,-,N/A,,Clear,150,2013-03-08 23:36:00
5:56 PM,37.4,26.6,65,30.25,10.0,SE,5.8,-,N/A,,Clear,140,2013-03-08 23:56:00
6:16 PM,37.4,26.6,65,30.26,10.0,SE,4.6,-,N/A,,Clear,140,2013-03-09 00:16:00
6:36 PM,35.6,26.6,70,30.26,10.0,SE,6.9,-,N/A,,Clear,140,2013-03-09 00:36:00
6:56 PM,33.8,26.6,75,30.26,10.0,SSE,6.9,-,N/A,,Clear,150,2013-03-09 00:56:00
7:16 PM,37.4,26.6,65,30.25,10.0,SSE,8.1,-,N/A,,Clear,150,2013-03-09 01:16:00
7:36 PM,35.6,26.6,70,30.24,10.0,SE,8.1,-,N/A,,Clear,140,2013-03-09 01:36:00
7:56 PM,33.8,26.6,75,30.23,10.0,SE,6.9,-,N/A,,Clear,130,2013-03-09 01:56:00
8:16 PM,32.0,26.6,80,30.22,10.0,SE,6.9,-,N/A,,Clear,140,2013-03-09 02:16:00
8:36 PM,32.0,26.6,80,30.22,10.0,SE,9.2,-,N/A,,Clear,130,2013-03-09 02:36:00
8:56 PM,32.0,26.6,80,30.20,10.0,SE,11.5,-,N/A,,Clear,130,2013-03-09 02:56:00
9:16 PM,32.0,26.6,80,30.20,10.0,SE,8.1,-,N/A,,Clear,130,2013-03-09 03:16:00
9:36 PM,32.0,26.6,80,30.20,10.0,SE,6.9,-,N/A,,Clear,140,2013-03-09 03:36:00
9:56 PM,32.0,26.6,80,30.21,10.0,SE,9.2,-,N/A,,Clear,140,2013-03-09 03:56:00
10:16 PM,32.0,26.6,80,30.20,10.0,SE,8.1,-,N/A,,Clear,140,2013-03-09 04:16:00
10:36 PM,32.0,26.6,80,30.20,10.0,SE,6.9,-,N/A,,Clear,140,2013-03-09 04:36:00
10:56 PM,32.0,24.8,75,30.19,10.0,SE,8.1,-,N/A,,Clear,130,2013-03-09 04:56:00
11:16 PM,32.0,26.6,80,30.19,10.0,SE,6.9,-,N/A,,Clear,140,2013-03-09 05:16:00
11:36 PM,32.0,26.6,80,30.18,10.0,SE,6.9,-,N/A,,Clear,140,2013-03-09 05:36:00
11:56 PM,32.0,26.6,80,30.17,10.0,SE,8.1,-,N/A,,Clear,130,2013-03-09 05:56:00